TimeEDT,TemperatureF,Dew PointF,Humidity,Sea Level PressureIn,VisibilityMPH,Wind Direction,Wind SpeedMPH,Gust SpeedMPH,PrecipitationIn,Events,Conditions,WindDirDegrees,DateUTC
12:53 AM,60.1,55.0,83,30.08,10.0,SSW,5.8,-,N/A,,Clear,200,2012-11-01 04:53:00
1:53 AM,60.1,54.0,80,30.07,10.0,SSW,6.9,-,N/A,,Clear,200,2012-11-01 05:53:00
2:53 AM,60.1,55.9,86,30.06,10.0,Calm,Calm,-,N/A,,Clear,0,2012-11-01 06:53:00
3:53 AM,57.9,55.0,90,30.05,10.0,South,4.6,-,N/A,,Clear,170,2012-11-01 07:53:00
4:53 AM,59.0,57.0,93,30.05,9.0,SSE,3.5,-,N/A,,Clear,160,2012-11-01 08:53:00
5:53 AM,59.0,57.0,93,30.05,7.0,Calm,Calm,-,N/A,,Clear,0,2012-11-01 09:53:00
8:53 AM,66.0,62.1,87,30.07,10.0,Calm,Calm,-,N/A,,Clear,0,2012-11-01 12:53:00
9:53 AM,75.0,63.0,66,30.09,10.0,WSW,5.8,-,N/A,,Clear,250,2012-11-01 13:53:00
10:53 AM,75.9,60.1,58,30.09,10.0,West,8.1,-,N/A,,Overcast,260,2012-11-01 14:53:00
11:53 AM,75.9,60.1,58,30.09,10.0,West,8.1,-,N/A,,Overcast,280,2012-11-01 15:53:00
12:53 PM,72.0,64.0,76,30.07,10.0,West,6.9,-,0.01,,Overcast,280,2012-11-01 16:53:00
1:53 PM,75.9,62.1,62,30.04,10.0,West,8.1,-,N/A,,Overcast,270,2012-11-01 17:53:00
2:53 PM,78.1,61.0,56,30.02,10.0,West,11.5,17.3,N/A,,Overcast,280,2012-11-01 18:53:00
3:53 PM,75.9,62.1,62,30.01,10.0,West,21.9,26.5,N/A,,Overcast,260,2012-11-01 19:53:00
4:53 PM,75.0,61.0,62,30.01,10.0,West,12.7,-,N/A,,Overcast,270,2012-11-01 20:53:00
5:53 PM,73.9,60.1,62,30.01,10.0,West,10.4,-,N/A,,Clear,270,2012-11-01 21:53:00
6:53 PM,72.0,63.0,73,30.01,10.0,WNW,4.6,-,N/A,,Mostly Cloudy,290,2012-11-01 22:53:00
7:18 PM,71.6,62.6,73,30.02,10.0,West,3.5,-,N/A,,Mostly Cloudy,280,2012-11-01 23:18:00
7:53 PM,71.1,63.0,75,30.02,10.0,WSW,3.5,-,N/A,,Scattered Clouds,250,2012-11-01 23:53:00
8:53 PM,66.9,63.0,87,30.03,10.0,South,3.5,-,N/A,,Clear,180,2012-11-02 00:53:00
9:53 PM,66.0,62.1,87,30.05,10.0,Calm,Calm,-,N/A,,Mostly Cloudy,0,2012-11-02 01:53:00
10:53 PM,68.0,64.9,90,30.06,10.0,Calm,Calm,-,N/A,,Overcast,0,2012-11-02 02:53:00
11:53 PM,68.0,64.9,90,30.06,10.0,West,3.5,-,N/A,,Partly Cloudy,270,2012-11-02 03:53:00